Regional Weather Roundup
Issued by NWS Grand Forks, ND

Home | Current Version | Previous Version | Graphics & Text | Print | Product List | Glossary On
Versions: 1 2 3 4 5 6 7 8 9 10 11 12 13 14 15 16 17 18 19 20 21 22 23 24 25 26 27 28 29 30 31 32 33 34 35 36 37 38 39 40 41 42 43 44 45 46 47 48 49 50
000
ASUS43 KFGF 271510
RWRFGF
PRAIRIE TO PINES  WEATHER ROUNDUP
NATIONAL WEATHER SERVICE EASTERN NORTH DAKOTA/GRAND FORKS ND
1000 AM CDT THU AUG 27 2015

 **SATELLITE DATA USED TO AUGMENT SKY COVER AT AUTOMATED STATIONS**
 *****  WEATHER ACROSS EASTERN NORTH DAKOTA  *****

CITY           SKY/WX    TMP DP  RH WIND       PRES   REMARKS
GRAND FORKS    MOSUNNY   62  55  77 SE6       29.97F
GRAND FRKS AFB MOSUNNY   62  55  80 S3        29.97F
GRAND FRKS NWS   N/A     61 N/A N/A S3          N/A
DEVILS LAKE    MOSUNNY   66  57  72 N5        29.95F
FARGO          MOSUNNY   68  58  70 SE8       29.96F
WAHPETON ARPT  SUNNY     66  55  68 SE7       29.97F
$$

 ***** WEATHER ACROSS CENTRAL AND WESTERN NORTH DAKOTA  *****

CITY           SKY/WX    TMP DP  RH WIND       PRES   REMARKS
BISMARCK       PTSUNNY   67  62  84 CALM      29.97F
MINOT          PTSUNNY   63  60  90 N6        29.95F
JAMESTOWN      PTSUNNY   66  59  78 SE3       29.97S
MINOT AFB      PTSUNNY   64  63  99 N8        29.95F
GARRISON         N/A     70  64  81 CALM      29.96F
WILLISTON      MOSUNNY   66  59  78 NE3       29.98S
DICKINSON      CLOUDY    67  63  87 S7        29.98F
HETTINGER      PTSUNNY   68  60  75 SE5       30.02S
$$

 *****  OTHER AIRPORT OBSERVATIONS IN OUR AREA  *****

CITY           SKY/WX    TMP DP  RH WIND       PRES   REMARKS
WALHALLA       FAIR      64  64 100 MISG      29.97F
GRAFTON AIRPOR FAIR      61  57  88 S7        29.99R
VALLEY CITY AR FAIR      64  63  94 NE5       29.97F
CANDO          NOT AVBL
CAVALIER APRT  FAIR      63  55  77 E3        29.97F
GWINNER          N/A     68  64  88 E7        29.96F
SHEYENNE NWR     N/A     68  62  80 SE5       29.95S
ROLLA          FAIR      66  63  88 N9        29.99F
 ***** THE ABOVE OBSERVATIONS ARE NON NWS ARE NOT QUALITY
       CONTROLLED AND MAY MIS-REPORT RAIN FOR SNOW...
$$

  *****  WEATHER ACROSS NORTHERN MINNESOTA  *****

CITY           SKY/WX    TMP DP  RH WIND       PRES   REMARKS
FLAG ISLAND    SUNNY     64  57  77 S6        30.01S
WARROAD        SUNNY     63  57  82 CALM      30.02F
ROSEAU         SUNNY     63  55  77 S5        30.01F
HALLOCK        SUNNY     64  57  77 S6        29.98F
THF RVR FALLS  SUNNY    N/A N/A N/A S6        30.00S
BAUDETTE       SUNNY     62  54  74 S7        30.03F
WASKISH        SUNNY     64  57  77 SE5       30.03S
CROOKSTON      MOSUNNY   64  57  77 S5        29.99F
STEPHEN NDAWN    N/A     64  57  77 S5          N/A
GREENBUSH NDAW   N/A     64  57  77 S3          N/A
$$
  *****  WEATHER ACROSS CENTRAL AND WEST MINNESOTA  *****

CITY           SKY/WX    TMP DP  RH WIND       PRES   REMARKS
FOSSTON        MOSUNNY   64  57  77 CALM      30.01F
BEMIDJI        SUNNY     62  54  74 SE5       30.03S
PARK RAPIDS    CLOUDY    64  53  67 SE8       30.02F
ELBOW LAKE     FAIR      65  58  80 SE7       29.99F
WADENA         MOSUNNY   64  55  72 S9        30.01F
DETROIT LAKES  MOSUNNY   64  57  77 SE7       30.01F
MOORHEAD       MOSUNNY   66  59  77 S8        29.98F
FERGUS FALLS   SUNNY     66  57  72 SE7       29.99F
MORRIS MN      PTSUNNY   66  59  77 SE13      29.99S
STAPLES        MOSUNNY   64  54  68 S8        30.03S
$$
  *****  WEATHER ELSEWHERE ACROSS MINNESOTA  *****

CITY           SKY/WX    TMP DP  RH WIND       PRES   REMARKS
DULUTH         SUNNY     63  53  70 SE6       30.10F
INTRNTL FALLS  SUNNY     62  54  74 VRB6      30.05F
ELY            SUNNY     63  54  72 S7        30.09F
CLOQUET        MOSUNNY   61  54  77 SE5       30.10S
WHEATON        MOSUNNY   64  59  82 SE7       29.99S
BRAINERD       SUNNY     67  55  65 S9        30.05F
HIBBING        SUNNY     60  52  74 S6        30.09F
ALEXANDRIA     MOSUNNY   66  58  75 SE9       30.02F
SAINT CLOUD    CLOUDY    66  57  72 SE12      30.04F
MINNEAPOLIS    PTSUNNY   66  55  67 SE7       30.10S
$$

  *****  WEATHER ACROSS SOUTH DAKOTA  *****

CITY           SKY/WX    TMP DP  RH WIND       PRES   REMARKS
SIOUX FALLS    CLOUDY    70  64  81 S6        29.96R
BROOKINGS      CLOUDY    64  61  88 NW7       30.01R
WATERTOWN      CLOUDY    67  63  87 SW5       30.01R
HURON          CLOUDY    66  64  93 SE12      29.92F
SISSETON         N/A     66  61  84 S6        29.96F
ABERDEEN       PTSUNNY   73  65  75 CALM      29.95F
MITCHELL       CLOUDY    70  65  84 E6        29.96S
PIERRE         CLOUDY    70  65  84 NW7       29.96S
MOBRIDGE       PTSUNNY   71  67  87 S6        29.96S
RAPID CITY     LGT RAIN  67  61  81 NW5       30.05R
$$

  *****  SOME WEATHER IN NEARBY STATES *****

CITY           SKY/WX    TMP DP  RH WIND       PRES   REMARKS
GLASGOW MT     MOSUNNY   64  54  69 N3        29.97S
GREAT FALLS MT CLOUDY    67  42  40 SW5       30.03S
CHEYENNE WY    CLOUDY    68  52  56 NW16G24   30.20S
SCOTTSBLUFF NE PTSUNNY   72  62  71 NW16      30.05S
OMAHA NE       CLOUDY    67  60  78 S10       30.02R
DES MOINES IA  CLOUDY    68  57  68 SE8       30.12R
DAVENPORT IA   SUNNY     66  56  70 S9        30.18F
CHICAGO IL     MOSUNNY   65  52  62 SE5       30.20F
EAU CLAIRE WI  SUNNY     65  55  70 S7        30.13F
LA CROSSE WI   SUNNY     64  56  75 S8        30.15S
$$

  *****  SOME NATIONAL WEATHER *****

CITY           SKY/WX    TMP DP  RH WIND       PRES   REMARKS
LA GUARDIA NY  MOSUNNY   75  53  46 NW13      30.07R
RALEIGH NC     PTSUNNY   76  59  55 NE9       30.12R
ATLANTA GA     MOSUNNY   77  65  66 NE13      30.06R
NEW ORLEANS LA MOSUNNY   79  62  56 N10       30.03S
OKLAHOMA CITY  MOSUNNY   83  66  56 SW15      30.08S
ALBUQUERQUE NM MOSUNNY   68  58  70 S3        30.34R
SALT LAKE CITY MOSUNNY   71  56  58 SE10      30.24S
LOS ANGELES CA SUNNY     73  68  84 CALM      29.98R
BOISE ID       PTSUNNY   77  48  35 E6        30.12R
SEATTLE WA     PTSUNNY   62  53  72 S5        30.10R
$$

*** WEATHER ACROSS MANITOBA...SASKATCHEWAN AND ONTARIO ***
                ***ONTARIO***

CITY           SKY/WX    TMP DP  RH WIND       PRES   REMARKS
GERALDTON      MOSUNNY   63  50  63 SW13      30.07F
THUNDER BAY    MOSUNNY   61  52  72 VRB2      30.10F
SIOUX LOOKOUT  MOSUNNY   63  52  67 SW6       30.04F
TORONTO        PTSUNNY   63  52  67 N9        30.15R
BIG TROUT LK   SUNNY     63  55  77 W5        29.92R
PICKLE LAKE    MOSUNNY   64  50  59 W8        29.98F
DRYDEN         SUNNY     64  52  63 SW6       30.03F
KENORA         PTSUNNY   64  57  77 SW3       30.01F
$$
                *** MANITOBA***

CITY           SKY/WX    TMP DP  RH WIND       PRES   REMARKS
BRANDON        MOSUNNY   64  59  82 CALM      29.98F
DAUPHIN        SUNNY     63  59  88 W5        29.97F
ISLAND LAKE    PTSUNNY   63  55  77 S5        29.93F
PILOT MOUND      N/A     64  57  77 N2          N/A
THE PAS        PTSUNNY   59  55  88 E6        29.94F
THOMPSON       LGT RAIN  52  50  93 VRB2      29.95F
WINNIPEG       SUNNY     63  54  72 SW5       29.98F
LYNN LAKE      CLOUDY    57  52  82 MISG      29.91F
CHURCHILL      PTSUNNY   55  48  76 SW10      29.87F
GILLAM         CLOUDY    54  46  76 N2        29.95F
$$
                ***SASKATCHEWAN***

CITY           SKY/WX    TMP DP  RH WIND       PRES   REMARKS
ESTEVAN        PTSUNNY   64  61  88 E5        29.99F
KINDERSLEY     PTSUNNY   57  54  88 NE6       29.94F
LLOYDMINSTER   PTSUNNY   57  54  88 CALM      29.94F
PRINCE ALBERT  CLOUDY    57  57 100 CALM      29.94S
REGINA         CLOUDY    61  57  88 SE9       29.98F
YORKTON        SUNNY     63  57  82 S6        29.98S
N. BATTLEFORD  SUNNY     59  57  94 VRB2      29.96F
LA RONGE       MOSUNNY   61  54  77 SE8       29.93F
SASKATOON      MOSUNNY   61  57  88 SE5       29.96F
SWIFT CURRENT  SUNNY     68  55  64 SW12G18   29.95F
$$
NOTE: THESE ARE AUTOMATED STATIONS WITH LIMITED QUALITY CONTROL
      "FAIR" INDICATES FEW OR NO CLOUDS BELOW 12,000 FEET WITH NO
      SIGNIFICANT WEATHER AND/OR OBSTRUCTIONS TO VISIBILITY.
      SKY/WX - SKY CONDITION AND SIGNIFICANT WEATHER.
      TMP - AIR TEMPERATURE.    DP   - DEWPOINT TEMPERATURE.
      RH  - RELATIVE HUMIDITY.  PRES - PRESSURE.
      HX  - HEAT INDEX.         WCI  - WIND CHILL INDEX.
$


USA.gov is the U.S. government's official web portal to all federal, state and local government web resources and services.